Location: Kikino
(54.4440°N, 112.0940°W)
Time: 23:01:54
(UTC+00:00)

RS-44 - Visible Passes

Search period start: 01 December 2023 00:00
Search period end: 11 December 2023 00:00
Orbit: 1174 x 1510 km, 82.5° (Epoch: 30 November)

Date Brightness Start Highest point End Pass type
(mag) Time Alt. Az. Time Alt. Az. Time Alt. Az.
01 Dec ? 03:53:22 10° N 03:54:57 15° N 03:54:57 15° N visible
01 Dec ? 05:46:35 10° NNW 05:47:32 14° NNW 05:47:32 14° NNW visible
02 Dec ? 02:25:13 10° NNE 02:25:56 11° NNE 02:25:56 11° NNE visible
02 Dec ? 04:17:00 10° N 04:18:31 16° N 04:18:31 16° N visible
02 Dec ? 06:10:28 10° NNW 06:11:06 13° NNW 06:11:06 13° NNW visible
03 Dec ? 02:48:07 10° N 02:49:31 13° NNE 02:49:31 13° NNE visible
03 Dec ? 04:40:42 10° N 04:42:06 16° N 04:42:06 16° N visible
03 Dec ? 06:34:27 10° NNW 06:34:41 11° NNW 06:34:41 11° NNW visible
04 Dec ? 03:11:30 10° N 03:13:06 14° NNE 03:13:06 14° NNE visible
04 Dec ? 05:04:28 10° N 05:05:41 16° N 05:05:41 16° N visible
05 Dec ? 03:35:03 10° N 03:36:42 16° N 03:36:42 16° N visible
05 Dec ? 05:28:18 10° NNW 05:29:17 15° NNW 05:29:17 15° NNW visible
06 Dec ? 02:06:43 10° NNE 02:07:42 11° NNE 02:07:42 11° NNE visible
06 Dec ? 03:58:42 10° N 04:00:18 17° N 04:00:18 17° N visible
06 Dec ? 05:52:12 10° NNW 05:52:53 13° NNW 05:52:53 13° NNW visible
07 Dec ? 02:29:44 10° N 02:31:19 13° NNE 02:31:19 13° NNE visible
07 Dec ? 04:22:24 10° N 04:23:54 17° N 04:23:54 17° N visible
07 Dec ? 06:16:12 10° NNW 06:16:29 11° NNW 06:16:29 11° NNW visible
08 Dec ? 02:53:09 10° N 02:54:56 15° NNE 02:54:56 15° NNE visible
08 Dec ? 04:46:09 10° N 04:47:31 16° N 04:47:31 16° N visible
09 Dec ? 03:16:42 10° N 03:18:33 17° N 03:18:33 17° N visible
09 Dec ? 05:10:00 10° NNW 05:11:08 15° NNW 05:11:08 15° NNW visible
10 Dec ? 01:48:12 10° NNE 01:49:36 12° NNE 01:49:36 12° NNE visible
10 Dec ? 03:40:20 10° N 03:42:11 18° N 03:42:11 18° N visible
10 Dec ? 05:33:55 10° NNW 05:34:46 14° NNW 05:34:46 14° NNW visible
